| time (UTC) | temp F | wind direction | speed knots | gust knots | rain 1hr in | rain 24hr in | rain mn in | humidity % | barometer mb |
| 20260902072903 | 78 | 70 | 0.0 | 1.7 | 0.00 | 0.00 | 0.00 | 68 | 1015.5 |
| 20260902071903 | 79 | 51 | 0.9 | 1.7 | 0.00 | 0.00 | 0.00 | 67 | 1015.5 |
| 20260902071402 | 79 | 66 | 0.0 | 1.7 | 0.00 | 0.00 | 0.00 | 66 | 1015.5 |
| 20260902070403 | 79 | 94 | 0.9 | 1.7 | 0.00 | 0.00 | 0.00 | 65 | 1015.5 |
| 20260902065903 | 79 | 63 | 0.0 | 1.7 | 0.00 | 0.00 | 0.00 | 65 | 1015.4 |
| 20260902065403 | 79 | 63 | 0.0 | 1.7 | 0.00 | 0.00 | 0.00 | 64 | 1015.4 |
| 20260902064902 | 79 | 66 | 0.9 | 1.7 | 0.00 | 0.00 | 0.00 | 65 | 1015.3 |
| 20260902064403 | 79 | 115 | 0.0 | 1.7 | 0.00 | 0.00 | 0.00 | 65 | 1015.3 |
| 20260902063903 | 80 | 68 | 0.0 | 1.7 | 0.00 | 0.00 | 0.00 | 64 | 1015.3 |
| 20260902063403 | 80 | 49 | 0.0 | 1.7 | 0.00 | 0.00 | 0.00 | 64 | 1015.2 |
| 20260902062403 | 80 | 74 | 0.9 | 1.7 | 0.00 | 0.00 | 0.00 | 64 | 1015.3 |
| 20260902061903 | 80 | 151 | 0.0 | 2.6 | 0.00 | 0.00 | 0.00 | 64 | 1015.3 |
| 20260902061403 | 80 | 33 | 0.0 | 2.6 | 0.00 | 0.00 | 0.00 | 63 | 1015.3 |
| 20260902060403 | 80 | 38 | 0.9 | 2.6 | 0.00 | 0.00 | 0.00 | 64 | 1015.2 |
| 20260902055903 | 80 | 58 | 0.9 | 2.6 | 0.00 | 0.00 | 0.00 | 63 | 1015.2 |
| 20260902055403 | 81 | 37 | 0.0 | 1.7 | 0.00 | 0.00 | 0.00 | 63 | 1015.2 |
| 20260902054903 | 81 | 37 | 0.0 | 1.7 | 0.00 | 0.00 | 0.00 | 62 | 1015.3 |
| 20260902054403 | 81 | 41 | 0.9 | 1.7 | 0.00 | 0.00 | 0.00 | 62 | 1015.3 |
| 20260902053903 | 81 | 46 | 0.0 | 0.9 | 0.00 | 0.00 | 0.00 | 62 | 1015.3 |
| 20260902053402 | 81 | 46 | 0.0 | 0.9 | 0.00 | 0.00 | 0.00 | 62 | 1015.3 |
| 20260902052903 | 81 | 46 | 0.0 | 1.7 | 0.00 | 0.00 | 0.00 | 62 | 1015.3 |
| 20260902052403 | 82 | 46 | 0.0 | 1.7 | 0.00 | 0.00 | 0.00 | 61 | 1015.4 |
| 20260902051903 | 82 | 46 | 0.0 | 1.7 | 0.00 | 0.00 | 0.00 | 61 | 1015.4 |
| 20260902051403 | 82 | 41 | 0.0 | 1.7 | 0.00 | 0.00 | 0.00 | 60 | 1015.4 |
| 20260902050903 | 82 | 50 | 0.0 | 1.7 | 0.00 | 0.00 | 0.00 | 60 | 1015.4 |
| 20260902050403 | 82 | 57 | 0.0 | 1.7 | 0.00 | 0.00 | 0.00 | 59 | 1015.5 |
| 20260902045903 | 82 | 62 | 0.9 | 1.7 | 0.00 | 0.00 | 0.00 | 59 | 1015.5 |
| 20260902045403 | 82 | 45 | 0.0 | 1.7 | 0.00 | 0.00 | 0.00 | 59 | 1015.5 |
| 20260902044903 | 82 | 79 | 0.0 | 1.7 | 0.00 | 0.00 | 0.00 | 59 | 1015.5 |
| 20260902044403 | 82 | 79 | 0.0 | 1.7 | 0.00 | 0.00 | 0.00 | 59 | 1015.4 |
| 20260902042903 | 83 | 98 | 0.0 | 0.0 | 0.00 | 0.00 | 0.00 | 59 | 1015.5 |
| 20260902042403 | 83 | 86 | 0.0 | 0.0 | 0.00 | 0.00 | 0.00 | 59 | 1015.4 |
| 20260902041903 | 83 | 94 | 0.0 | 0.0 | 0.00 | 0.00 | 0.00 | 58 | 1015.4 |
| 20260902041403 | 83 | 72 | 0.0 | 0.0 | 0.00 | 0.00 | 0.00 | 56 | 1015.3 |
| 20260902040903 | 83 | 61 | 0.0 | 0.0 | 0.00 | 0.00 | 0.00 | 57 | 1015.3 |
| 20260902040403 | 83 | 67 | 0.0 | 0.0 | 0.00 | 0.00 | 0.00 | 58 | 1015.2 |
| 20260902035403 | 84 | 69 | 0.0 | 0.0 | 0.00 | 0.00 | 0.00 | 58 | 1015.0 |
| 20260902034903 | 84 | 69 | 0.0 | 0.0 | 0.00 | 0.00 | 0.00 | 57 | 1015.0 |
| 20260902034403 | 84 | 90 | 0.0 | 0.0 | 0.00 | 0.00 | 0.00 | 56 | 1014.9 |
| 20260902033903 | 85 | 63 | 0.0 | 0.0 | 0.00 | 0.00 | 0.00 | 54 | 1014.8 |
| 20260902032402 | 86 | 4 | 0.0 | 0.9 | 0.00 | 0.00 | 0.00 | 50 | 1014.6 |
| 20260902031403 | 86 | 9 | 0.9 | 1.7 | 0.00 | 0.00 | 0.00 | 50 | 1014.4 |
| 20260902030403 | 87 | 0 | 0.9 | 2.6 | 0.00 | 0.00 | 0.00 | 49 | 1014.2 |
| 20260902025903 | 87 | 329 | 0.0 | 1.7 | 0.00 | 0.00 | 0.00 | 50 | 1014.0 |
| 20260902025402 | 87 | 297 | 0.0 | 1.7 | 0.00 | 0.00 | 0.00 | 49 | 1013.9 |
| 20260902024903 | 87 | 355 | 0.0 | 1.7 | 0.00 | 0.00 | 0.00 | 49 | 1013.8 |
| 20260902024403 | 88 | 342 | 0.0 | 1.7 | 0.00 | 0.00 | 0.00 | 48 | 1013.7 |
| 20260902023903 | 88 | 336 | 0.0 | 1.7 | 0.00 | 0.00 | 0.00 | 47 | 1013.7 |
| 20260902023403 | 88 | 310 | 0.9 | 2.6 | 0.00 | 0.00 | 0.00 | 46 | 1013.6 |
| 20260902021903 | 89 | 328 | 0.0 | 1.7 | 0.00 | 0.00 | 0.00 | 45 | 1013.4 |
| 20260902021403 | 89 | 355 | 0.0 | 2.6 | 0.00 | 0.00 | 0.00 | 44 | 1013.4 |
| 20260902020903 | 89 | 320 | 0.0 | 2.6 | 0.00 | 0.00 | 0.00 | 43 | 1013.3 |
| 20260902020403 | 89 | 338 | 0.9 | 2.6 | 0.00 | 0.00 | 0.00 | 43 | 1013.3 |
| 20260902015902 | 89 | 347 | 0.0 | 2.6 | 0.00 | 0.00 | 0.00 | 43 | 1013.2 |
| 20260902015403 | 89 | 355 | 0.9 | 2.6 | 0.00 | 0.00 | 0.00 | 43 | 1013.2 |
| 20260902014902 | 90 | 349 | 0.9 | 1.7 | 0.00 | 0.00 | 0.00 | 43 | 1013.1 |
| 20260902013403 | 90 | 355 | 0.0 | 2.6 | 0.00 | 0.00 | 0.00 | 42 | 1013.1 |
| 20260902011402 | 91 | 236 | 0.9 | 2.6 | 0.00 | 0.89 | 0.00 | 43 | 1013.2 |
| 20260902010903 | 91 | 185 | 1.7 | 2.6 | 0.00 | 0.89 | 0.00 | 42 | 1013.2 |
| 20260902010403 | 92 | 350 | 1.7 | 2.6 | 0.00 | 0.89 | 0.00 | 41 | 1013.3 |
| 20260902005403 | 92 | 290 | 0.9 | 2.6 | 0.00 | 0.89 | 0.00 | 39 | 1013.1 |
| 20260902004902 | 92 | 226 | 0.9 | 2.6 | 0.00 | 0.89 | 0.00 | 38 | 1013.1 |
| 20260902004403 | 92 | 18 | 1.7 | 5.2 | 0.00 | 0.89 | 0.00 | 38 | 1013.1 |
| 20260902003903 | 93 | 353 | 0.9 | 5.2 | 0.00 | 0.89 | 0.00 | 37 | 1013.1 |
| 20260902002903 | 93 | 217 | 1.7 | 4.3 | 0.00 | 0.89 | 0.00 | 36 | 1013.3 |
| 20260902001902 | 93 | 305 | 0.9 | 2.6 | 0.00 | 0.89 | 0.00 | 36 | 1013.3 |
| 20260902001403 | 93 | 221 | 1.7 | 4.3 | 0.00 | 0.89 | 0.00 | 36 | 1013.3 |
| 20260902000903 | 94 | 45 | 0.9 | 7.8 | 0.00 | 0.89 | 0.00 | 36 | 1013.4 |
| 20260902000403 | 94 | 188 | 0.9 | 7.8 | 0.00 | 0.89 | 0.00 | 35 | 1013.4 |
| 20260901235903 | 94 | 242 | 1.7 | 7.8 | 0.00 | 0.89 | 0.00 | 36 | 1013.4 |
| 20260901235403 | 94 | 223 | 2.6 | 7.0 | 0.00 | 0.89 | 0.00 | 36 | 1013.5 |
| 20260901234903 | 94 | 232 | 2.6 | 7.0 | 0.00 | 0.89 | 0.00 | 36 | 1013.5 |
| 20260901234403 | 94 | 99 | 0.9 | 7.0 | 0.00 | 0.89 | 0.00 | 36 | 1013.5 |
| 20260901233903 | 95 | 209 | 1.7 | 7.0 | 0.00 | 0.89 | 0.00 | 37 | 1013.7 |
| 20260901233403 | 95 | 211 | 1.7 | 5.2 | 0.00 | 0.89 | 0.00 | 37 | 1013.6 |
| 20260901232903 | 95 | 233 | 2.6 | 5.2 | 0.00 | 0.89 | 0.00 | 35 | 1013.6 |
| 20260901231904 | 95 | 22 | 0.9 | 4.3 | 0.00 | 0.89 | 0.00 | 36 | 1013.8 |
| 20260901231403 | 95 | 235 | 0.9 | 5.2 | 0.00 | 0.89 | 0.00 | 36 | 1013.8 |
| 20260901230903 | 95 | 20 | 1.7 | 6.1 | 0.00 | 0.89 | 0.00 | 37 | 1013.8 |
| 20260901230403 | 95 | 225 | 2.6 | 6.1 | 0.00 | 0.89 | 0.00 | 35 | 1013.9 |
| 20260901225903 | 96 | 41 | 1.7 | 4.3 | 0.00 | 0.89 | 0.00 | 37 | 1013.9 |
| 20260901225403 | 95 | 19 | 1.7 | 4.3 | 0.00 | 0.89 | 0.00 | 36 | 1013.9 |
| 20260901224903 | 95 | 239 | 2.6 | 4.3 | 0.00 | 0.89 | 0.00 | 35 | 1013.9 |
| 20260901224403 | 96 | 278 | 1.7 | 4.3 | 0.00 | 0.89 | 0.00 | 35 | 1013.9 |
| 20260901223903 | 96 | 290 | 0.9 | 7.8 | 0.00 | 0.89 | 0.00 | 36 | 1014.2 |
| 20260901223403 | 96 | 254 | 1.7 | 7.8 | 0.00 | 0.89 | 0.00 | 35 | 1014.0 |
| 20260901222403 | 96 | 252 | 0.9 | 5.2 | 0.00 | 0.89 | 0.00 | 36 | 1014.2 |
| 20260901221903 | 96 | 284 | 1.7 | 5.2 | 0.00 | 0.89 | 0.00 | 36 | 1014.3 |
| 20260901220903 | 96 | 199 | 0.9 | 6.1 | 0.00 | 0.89 | 0.00 | 36 | 1014.3 |
| 20260901220403 | 95 | 209 | 1.7 | 6.1 | 0.00 | 0.89 | 0.00 | 37 | 1014.3 |
| 20260901215903 | 95 | 131 | 0.9 | 2.6 | 0.00 | 0.89 | 0.00 | 36 | 1014.4 |
| 20260901214903 | 96 | 42 | 0.9 | 4.3 | 0.00 | 0.89 | 0.00 | 36 | 1014.5 |
| 20260901214403 | 96 | 277 | 0.9 | 5.2 | 0.00 | 0.89 | 0.00 | 36 | 1014.6 |
| 20260901213403 | 95 | 257 | 0.9 | 6.1 | 0.00 | 0.89 | 0.00 | 37 | 1014.8 |
| 20260901212903 | 95 | 227 | 1.7 | 6.1 | 0.00 | 0.89 | 0.00 | 36 | 1014.9 |
| 20260901212403 | 95 | 248 | 2.6 | 6.1 | 0.00 | 0.89 | 0.00 | 37 | 1015.0 |
| 20260901211903 | 95 | 228 | 1.7 | 5.2 | 0.00 | 0.89 | 0.00 | 36 | 1015.0 |
| 20260901211403 | 96 | 226 | 2.6 | 6.1 | 0.00 | 0.89 | 0.00 | 36 | 1015.2 |
| 20260901210903 | 96 | 238 | 2.6 | 6.1 | 0.00 | 0.89 | 0.00 | 36 | 1015.2 |
| 20260901210403 | 95 | 327 | 0.9 | 2.6 | 0.00 | 0.89 | 0.00 | 37 | 1015.4 |
| 20260901205903 | 95 | 309 | 0.9 | 5.2 | 0.00 | 0.89 | 0.00 | 38 | 1015.3 |
| 20260901205403 | 95 | 197 | 0.9 | 6.1 | 0.00 | 0.89 | 0.00 | 37 | 1015.4 |
| 20260901204903 | 95 | 264 | 1.7 | 7.8 | 0.00 | 0.89 | 0.00 | 39 | 1015.5 |
| 20260901204403 | 95 | 201 | 3.5 | 7.8 | 0.00 | 0.89 | 0.00 | 38 | 1015.5 |
| 20260901203903 | 95 | 8 | 0.9 | 6.1 | 0.00 | 0.89 | 0.00 | 39 | 1015.5 |
| 20260901202903 | 94 | 229 | 2.6 | 7.0 | 0.00 | 0.89 | 0.00 | 39 | 1015.8 |
| 20260901201903 | 94 | 247 | 1.7 | 7.0 | 0.00 | 0.89 | 0.00 | 39 | 1016.0 |
| 20260901200403 | 95 | 335 | 1.7 | 4.3 | 0.00 | 0.89 | 0.00 | 37 | 1016.0 |
| 20260901195903 | 94 | 235 | 0.9 | 2.6 | 0.00 | 0.89 | 0.00 | 38 | 1016.1 |
| 20260901194404 | 94 | 134 | 0.9 | 2.6 | 0.00 | 0.89 | 0.00 | 38 | 1016.1 |
| 20260901193902 | 93 | 58 | 1.7 | 4.3 | 0.00 | 0.89 | 0.00 | 38 | 1016.2 |
| 20260901193403 | 93 | 81 | 1.7 | 6.1 | 0.00 | 0.89 | 0.00 | 38 | 1016.3 |
| 20260901192903 | 93 | 40 | 2.6 | 6.1 | 0.00 | 0.89 | 0.00 | 37 | 1016.3 |
| 20260901192402 | 92 | 74 | 1.7 | 5.2 | 0.00 | 0.89 | 0.00 | 38 | 1016.4 |
| 20260901191904 | 93 | 27 | 1.7 | 5.2 | 0.00 | 0.89 | 0.00 | 39 | 1016.6 |
| 20260901191403 | 92 | 90 | 1.7 | 5.2 | 0.00 | 0.89 | 0.00 | 40 | 1016.7 |
| 20260901190903 | 92 | 48 | 1.7 | 5.2 | 0.00 | 0.89 | 0.00 | 39 | 1016.6 |
| 20260901190403 | 91 | 52 | 0.9 | 2.6 | 0.00 | 0.89 | 0.00 | 42 | 1016.8 |
| 20260901185903 | 91 | 147 | 0.9 | 2.6 | 0.00 | 0.89 | 0.00 | 40 | 1016.7 |
| 20260901185403 | 91 | 134 | 0.0 | 2.6 | 0.00 | 0.89 | 0.00 | 40 | 1016.8 |
| 20260901184902 | 90 | 197 | 0.9 | 2.6 | 0.00 | 0.89 | 0.00 | 40 | 1016.6 |
| 20260901183902 | 90 | 208 | 0.9 | 2.6 | 0.00 | 0.89 | 0.00 | 42 | 1016.8 |
| 20260901183404 | 89 | 154 | 0.9 | 2.6 | 0.00 | 0.89 | 0.00 | 44 | 1016.9 |
| 20260901182903 | 89 | 78 | 0.9 | 2.6 | 0.00 | 0.89 | 0.00 | 44 | 1016.9 |
| 20260901182404 | 88 | 212 | 1.7 | 2.6 | 0.00 | 0.89 | 0.00 | 43 | 1016.9 |
| 20260901181904 | 88 | 147 | 1.7 | 4.3 | 0.00 | 0.89 | 0.00 | 44 | 1017.0 |
| 20260901181402 | 89 | 195 | 0.9 | 5.2 | 0.00 | 0.89 | 0.00 | 44 | 1017.0 |
| 20260901180902 | 89 | 231 | 0.9 | 5.2 | 0.00 | 0.89 | 0.00 | 44 | 1017.1 |
| 20260901180402 | 89 | 237 | 2.6 | 5.2 | 0.00 | 0.89 | 0.00 | 44 | 1017.0 |
| 20260901175903 | 89 | 218 | 0.9 | 2.6 | 0.00 | 0.89 | 0.00 | 44 | 1017.1 |
| 20260901175403 | 89 | 61 | 0.0 | 2.6 | 0.00 | 0.89 | 0.00 | 45 | 1017.1 |
| 20260901174903 | 88 | 115 | 0.9 | 2.6 | 0.00 | 0.89 | 0.00 | 46 | 1017.2 |
| 20260901174403 | 87 | 189 | 0.0 | 2.6 | 0.00 | 0.89 | 0.00 | 45 | 1017.1 |
| 20260901173903 | 87 | 248 | 0.9 | 2.6 | 0.00 | 0.89 | 0.00 | 46 | 1017.1 |
| 20260901173402 | 86 | 208 | 1.7 | 2.6 | 0.00 | 0.89 | 0.00 | 48 | 1017.2 |
| 20260901172903 | 86 | 198 | 0.9 | 4.3 | 0.00 | 0.89 | 0.00 | 48 | 1017.2 |
| 20260901172403 | 86 | 226 | 1.7 | 4.3 | 0.00 | 0.89 | 0.00 | 49 | 1017.2 |
| 20260901171903 | 87 | 209 | 0.9 | 4.3 | 0.00 | 0.89 | 0.00 | 48 | 1017.2 |
| 20260901171402 | 86 | 98 | 0.9 | 2.6 | 0.00 | 0.89 | 0.00 | 50 | 1017.2 |
| 20260901170903 | 86 | 82 | 0.9 | 2.6 | 0.00 | 0.89 | 0.00 | 51 | 1017.3 |
| 20260901170403 | 85 | 225 | 1.7 | 2.6 | 0.00 | 0.89 | 0.00 | 49 | 1017.2 |
| 20260901165903 | 86 | 186 | 0.9 | 2.6 | 0.00 | 0.89 | 0.00 | 51 | 1017.3 |
| 20260901164903 | 85 | 195 | 1.7 | 2.6 | 0.00 | 0.89 | 0.00 | 53 | 1017.4 |
| 20260901164403 | 84 | 111 | 0.9 | 2.6 | 0.00 | 0.89 | 0.00 | 54 | 1017.3 |
| 20260901163903 | 84 | 113 | 0.9 | 2.6 | 0.00 | 0.89 | 0.00 | 54 | 1017.3 |
| 20260901163403 | 84 | 89 | 1.7 | 2.6 | 0.00 | 0.89 | 0.00 | 54 | 1017.3 |
| 20260901162903 | 83 | 156 | 0.9 | 4.3 | 0.00 | 0.89 | 0.00 | 55 | 1017.2 |
| 20260901162403 | 83 | 200 | 0.9 | 4.3 | 0.00 | 0.89 | 0.00 | 58 | 1017.1 |
| 20260901161903 | 83 | 99 | 0.9 | 4.3 | 0.00 | 0.89 | 0.00 | 58 | 1017.2 |
| 20260901161403 | 82 | 88 | 0.9 | 2.6 | 0.00 | 0.89 | 0.00 | 60 | 1017.2 |
| 20260901160904 | 81 | 146 | 1.7 | 2.6 | 0.00 | 0.89 | 0.00 | 61 | 1017.2 |
| 20260901155903 | 81 | 116 | 0.9 | 2.6 | 0.00 | 0.89 | 0.00 | 61 | 1017.2 |
| 20260901155404 | 81 | 97 | 0.9 | 5.2 | 0.00 | 0.89 | 0.00 | 61 | 1017.2 |
| 20260901154903 | 81 | 102 | 1.7 | 5.2 | 0.00 | 0.89 | 0.00 | 61 | 1017.2 |
| 20260901153903 | 80 | 116 | 0.9 | 2.6 | 0.00 | 0.89 | 0.00 | 63 | 1017.2 |
| 20260901153403 | 80 | 97 | 0.9 | 2.6 | 0.00 | 0.89 | 0.00 | 65 | 1017.2 |
| 20260901152902 | 79 | 123 | 0.9 | 5.2 | 0.00 | 0.89 | 0.00 | 65 | 1017.2 |
| 20260901152403 | 79 | 126 | 0.9 | 5.2 | 0.00 | 0.89 | 0.00 | 66 | 1017.2 |
| 20260901151903 | 79 | 161 | 0.9 | 2.6 | 0.00 | 0.89 | 0.00 | 66 | 1017.2 |
| 20260901151403 | 78 | 106 | 0.9 | 5.2 | 0.00 | 0.89 | 0.00 | 66 | 1017.2 |
| 20260901150903 | 78 | 104 | 2.6 | 5.2 | 0.00 | 0.89 | 0.00 | 67 | 1017.3 |
| 20260901150403 | 78 | 109 | 0.9 | 5.2 | 0.00 | 0.89 | 0.00 | 68 | 1017.3 |
| 20260901145902 | 77 | 115 | 0.9 | 2.6 | 0.00 | 0.89 | 0.00 | 69 | 1017.3 |
| 20260901145403 | 77 | 127 | 0.9 | 2.6 | 0.00 | 0.89 | 0.00 | 70 | 1017.2 |
| 20260901144903 | 76 | 115 | 0.9 | 4.3 | 0.00 | 0.89 | 0.00 | 71 | 1017.2 |
| 20260901143403 | 75 | 108 | 0.9 | 5.2 | 0.00 | 0.89 | 0.00 | 73 | 1017.1 |
| 20260901142902 | 75 | 85 | 1.7 | 5.2 | 0.00 | 0.89 | 0.00 | 73 | 1017.2 |
| 20260901142403 | 74 | 66 | 0.9 | 4.3 | 0.00 | 0.89 | 0.00 | 74 | 1017.2 |
| 20260901141903 | 74 | 114 | 0.9 | 4.3 | 0.00 | 0.89 | 0.00 | 75 | 1017.1 |
| 20260901140902 | 73 | 108 | 1.7 | 5.2 | 0.00 | 0.89 | 0.00 | 77 | 1017.0 |
| 20260901140403 | 72 | 102 | 0.9 | 2.6 | 0.00 | 0.89 | 0.00 | 78 | 1016.9 |
| 20260901135903 | 72 | 120 | 0.9 | 2.6 | 0.00 | 0.89 | 0.00 | 80 | 1016.8 |
| 20260901135403 | 71 | 123 | 0.9 | 2.6 | 0.00 | 0.89 | 0.00 | 81 | 1016.7 |
| 20260901134903 | 71 | 115 | 0.9 | 2.6 | 0.00 | 0.89 | 0.00 | 81 | 1016.8 |
| 20260901134402 | 70 | 94 | 0.9 | 5.2 | 0.00 | 0.89 | 0.00 | 82 | 1016.8 |
| 20260901133903 | 70 | 99 | 0.9 | 5.2 | 0.00 | 0.89 | 0.00 | 83 | 1016.7 |
| 20260901133403 | 70 | 87 | 0.9 | 2.6 | 0.00 | 0.89 | 0.00 | 83 | 1016.7 |
| 20260901132903 | 70 | 99 | 0.9 | 2.6 | 0.00 | 0.89 | 0.00 | 84 | 1016.7 |
| 20260901131903 | 70 | 91 | 0.0 | 1.7 | 0.00 | 0.89 | 0.00 | 84 | 1016.6 |
| 20260901131403 | 70 | 85 | 0.0 | 0.9 | 0.00 | 0.89 | 0.00 | 83 | 1016.4 |
| 20260901130903 | 70 | 96 | 0.0 | 1.7 | 0.00 | 0.89 | 0.00 | 83 | 1016.4 |
| 20260901130403 | 70 | 86 | 0.0 | 1.7 | 0.00 | 0.89 | 0.00 | 83 | 1016.3 |
| 20260901125403 | 70 | 109 | 0.0 | 1.7 | 0.00 | 0.89 | 0.00 | 83 | 1016.2 |
| 20260901124903 | 70 | 87 | 0.0 | 1.7 | 0.00 | 0.89 | 0.00 | 83 | 1016.1 |
| 20260901124403 | 70 | 63 | 0.0 | 0.9 | 0.00 | 0.89 | 0.00 | 83 | 1016.0 |
| 20260901123403 | 70 | 113 | 0.0 | 0.0 | 0.00 | 0.89 | 0.00 | 83 | 1015.9 |
| 20260901122903 | 70 | 113 | 0.0 | 0.0 | 0.00 | 0.89 | 0.00 | 83 | 1016.0 |
| 20260901122403 | 70 | 113 | 0.0 | 0.9 | 0.00 | 0.89 | 0.00 | 82 | 1015.9 |
| 20260901121903 | 70 | 113 | 0.0 | 0.9 | 0.00 | 0.89 | 0.00 | 82 | 1015.8 |
| 20260901121404 | 70 | 113 | 0.0 | 1.7 | 0.00 | 0.89 | 0.00 | 82 | 1015.8 |
| 20260901120903 | 71 | 109 | 0.0 | 2.6 | 0.00 | 0.89 | 0.00 | 82 | 1015.8 |
| 20260901120403 | 71 | 93 | 0.9 | 2.6 | 0.00 | 0.89 | 0.00 | 81 | 1015.7 |
| 20260901115903 | 71 | 103 | 0.9 | 2.6 | 0.00 | 0.89 | 0.00 | 81 | 1015.6 |
| 20260901115403 | 71 | 89 | 0.0 | 1.7 | 0.00 | 0.89 | 0.00 | 81 | 1015.5 |
| 20260901114902 | 71 | 76 | 0.0 | 1.7 | 0.00 | 0.89 | 0.00 | 82 | 1015.6 |
| 20260901114402 | 71 | 99 | 0.0 | 1.7 | 0.00 | 0.89 | 0.00 | 82 | 1015.6 |
| 20260901113903 | 71 | 98 | 0.9 | 1.7 | 0.00 | 0.89 | 0.00 | 82 | 1015.6 |
| 20260901113402 | 71 | 51 | 0.0 | 2.6 | 0.00 | 0.89 | 0.00 | 82 | 1015.6 |
| 20260901112902 | 71 | 68 | 0.0 | 2.6 | 0.00 | 0.89 | 0.00 | 82 | 1015.7 |
| 20260901112403 | 71 | 81 | 0.9 | 2.6 | 0.00 | 0.89 | 0.00 | 82 | 1015.7 |
| 20260901111903 | 71 | 85 | 0.9 | 2.6 | 0.00 | 0.89 | 0.00 | 82 | 1015.7 |
| 20260901110903 | 71 | 69 | 0.0 | 2.6 | 0.00 | 0.89 | 0.00 | 82 | 1015.6 |
| 20260901110404 | 71 | 97 | 0.9 | 2.6 | 0.00 | 0.89 | 0.00 | 82 | 1015.4 |
| 20260901105903 | 71 | 106 | 0.9 | 2.6 | 0.00 | 0.89 | 0.00 | 82 | 1015.6 |
| 20260901105402 | 71 | 92 | 0.9 | 2.6 | 0.00 | 0.89 | 0.00 | 82 | 1015.6 |
| 20260901104903 | 71 | 88 | 0.9 | 2.6 | 0.00 | 0.89 | 0.00 | 82 | 1015.6 |
| 20260901104403 | 71 | 81 | 0.9 | 2.6 | 0.00 | 0.89 | 0.00 | 82 | 1015.5 |
| 20260901103403 | 71 | 126 | 0.9 | 2.6 | 0.00 | 0.89 | 0.00 | 82 | 1015.5 |
| 20260901102903 | 71 | 98 | 0.9 | 2.6 | 0.00 | 0.89 | 0.00 | 82 | 1015.6 |
| 20260901101903 | 71 | 100 | 0.9 | 2.6 | 0.00 | 0.89 | 0.00 | 81 | 1015.5 |
| 20260901101403 | 71 | 78 | 0.0 | 1.7 | 0.00 | 0.89 | 0.00 | 81 | 1015.4 |
| 20260901100903 | 72 | 78 | 0.0 | 0.0 | 0.00 | 0.89 | 0.00 | 80 | 1015.4 |
| 20260901100403 | 72 | 78 | 0.0 | 1.7 | 0.00 | 0.89 | 0.00 | 80 | 1015.4 |
| 20260901095903 | 72 | 78 | 0.0 | 1.7 | 0.00 | 0.89 | 0.00 | 80 | 1015.4 |
| 20260901094402 | 72 | 72 | 0.0 | 1.7 | 0.00 | 0.89 | 0.00 | 80 | 1015.4 |
| 20260901093403 | 72 | 76 | 0.0 | 2.6 | 0.00 | 0.89 | 0.00 | 80 | 1015.4 |
| 20260901092903 | 72 | 109 | 0.9 | 2.6 | 0.00 | 0.89 | 0.00 | 80 | 1015.3 |
| 20260901092403 | 72 | 103 | 0.0 | 2.6 | 0.00 | 0.89 | 0.00 | 80 | 1015.4 |
| 20260901091903 | 72 | 88 | 0.0 | 2.6 | 0.00 | 0.89 | 0.00 | 80 | 1015.3 |
| 20260901091403 | 72 | 98 | 0.9 | 2.6 | 0.00 | 0.89 | 0.00 | 79 | 1015.3 |
| 20260901090903 | 72 | 65 | 0.9 | 2.6 | 0.00 | 0.89 | 0.00 | 79 | 1015.4 |
| 20260901090403 | 73 | 67 | 0.0 | 2.6 | 0.00 | 0.89 | 0.00 | 79 | 1015.4 |
| 20260901085903 | 73 | 72 | 0.0 | 2.6 | 0.00 | 0.89 | 0.00 | 79 | 1015.6 |
| 20260901085403 | 73 | 86 | 1.7 | 2.6 | 0.00 | 0.89 | 0.00 | 79 | 1015.6 |
| 20260901084403 | 73 | 95 | 0.9 | 2.6 | 0.00 | 0.89 | 0.00 | 80 | 1015.6 |
| 20260901083903 | 73 | 88 | 0.9 | 1.7 | 0.00 | 0.89 | 0.00 | 80 | 1015.5 |
| 20260901083403 | 73 | 88 | 0.9 | 2.6 | 0.00 | 0.89 | 0.00 | 80 | 1015.5 |
| 20260901082903 | 73 | 112 | 0.9 | 2.6 | 0.00 | 0.89 | 0.00 | 80 | 1015.5 |
| 20260901082403 | 73 | 68 | 0.9 | 2.6 | 0.00 | 0.89 | 0.00 | 79 | 1015.5 |
| 20260901081902 | 73 | 90 | 0.9 | 2.6 | 0.00 | 0.89 | 0.00 | 79 | 1015.5 |
| 20260901081403 | 73 | 67 | 0.0 | 2.6 | 0.00 | 0.89 | 0.00 | 79 | 1015.5 |
| 20260901080903 | 73 | 100 | 0.9 | 2.6 | 0.00 | 0.89 | 0.00 | 78 | 1015.5 |
| 20260901080404 | 74 | 83 | 0.9 | 2.6 | 0.00 | 0.89 | 0.00 | 77 | 1015.5 |
| 20260901075903 | 74 | 89 | 1.7 | 2.6 | 0.00 | 0.89 | 0.00 | 77 | 1015.4 |
| 20260901075403 | 74 | 97 | 0.9 | 2.6 | 0.00 | 0.89 | 0.00 | 77 | 1015.4 |
| 20260901074403 | 74 | 87 | 0.0 | 2.6 | 0.00 | 0.89 | 0.00 | 74 | 1015.5 |
| 20260901073903 | 75 | 91 | 0.0 | 1.7 | 0.00 | 0.89 | 0.00 | 74 | 1015.6 |
| 20260901073403 | 75 | 90 | 0.0 | 2.6 | 0.00 | 0.89 | 0.00 | 73 | 1015.6 |